Regional Weather Roundup
Issued by NWS Cleveland, OH

Home | Current Version | Previous Version | Graphics & Text | Print | Product List | Glossary On
Versions: 1 2 3 4 5 6 7 8 9 10 11 12 13 14 15 16 17 18 19 20 21 22 23 24 25 26 27 28 29 30 31 32 33 34 35 36 37 38 39 40 41 42 43 44 45 46 47 48 49 50
000
ASUS41 KCLE 192302
RWRCLE
OHIO REGIONAL WEATHER ROUNDUP
NATIONAL WEATHER SERVICE CLEVELAND, OH
700 PM EDT SAT APR 19 2014

NOTE: "FAIR" INDICATES FEW OR NO CLOUDS BELOW 12,000 FEET WITH NO
SIGNIFICANT WEATHER AND/OR OBSTRUCTIONS TO VISIBILITY.

OHZ001>008-015>018-024>027-034-035-043-044-200000-
   NORTHWEST OHIO

CITY           SKY/WX    TMP DP  RH WIND       PRES   REMARKS
DEFIANCE       SUNNY     55  26  32 E12       30.33R
FINDLAY        SUNNY     53  12  19 E14G22    30.32S
TOLEDO EXPRESS SUNNY     51  26  37 E12G20    30.34S
TOLEDO EXEC    SUNNY     50  28  42 E12       30.36S
LIMA           SUNNY     56  24  29 E14       30.30S
$$

OHZ009>014-019>023-028>033-038-089-200000-
   NORTHEAST OHIO

CITY           SKY/WX    TMP DP  RH WIND       PRES   REMARKS
CLE-HOPKINS    SUNNY     50  30  46 NE17      30.36F
CLE-LAKEFRONT  SUNNY     44  33  65 NE14      30.34F
CUY CO. ARPT   MOSUNNY   50  27  40 NE13      30.34F
LORAIN-ELYRIA  SUNNY     51  31  46 E15G22    30.34F
ASHTABULA      SUNNY     48  28  46 NE7       30.35S
AKRON-CANTON   MOSUNNY   57  19  22 NE12      30.30S
WOOSTER        SUNNY     54  30  40 N13       30.31S
MANSFIELD      SUNNY     52  29  41 NE12      30.31S
YOUNGSTOWN     MOSUNNY   55  26  32 N12       30.30S
$$

OHZ042-051>053-060>062-070>072-077>081-200000-
  SOUTHWEST OHIO

CITY           SKY/WX    TMP DP  RH WIND       PRES   REMARKS
CINC-COVINGTON MOSUNNY   67  31  26 NE12      30.23F
CINC-LUNKEN    SUNNY     66  35  31 E8        30.24S
HAMILTON       SUNNY     66  36  32 NE9       30.26S
DAYTON         MOSUNNY   62  33  33 NE12      30.28S
WRIGHT-PAT AFB SUNNY     63  33  33 NE10      30.26F
DAYTON GENERAL SUNNY     63  35  35 E9        30.25S
WILMINGTON     SUNNY     62  33  33 NE12      30.25S
$$

OHZ036-037-039>041-045>050-054>059-063>069-073>076-082>088-200000-
  CENTRAL AND SOUTHEAST OHIO

CITY           SKY/WX    TMP DP  RH WIND       PRES   REMARKS
COLUMBUS       MOSUNNY   64  29  26 E8        30.26F
OSU AIRPORT    SUNNY     61  30  31 E7        30.27S
BOLTON FIELD   SUNNY     63  32  31 NE6       30.26F
RICKENBACK AFB NOT AVBL
NEWARK         PTSUNNY   63  23  21 E9        30.26S
MARION         SUNNY     55  30  38 NE14      30.30S
LANCASTER      SUNNY     64  30  27 NE14      30.26S
ZANESVILLE     PTSUNNY   64  22  20 NE10      30.27R
NEW PHILLY     MOSUNNY   61  23  23 NE8       30.29S
$$



USA.gov is the U.S. government's official web portal to all federal, state and local government web resources and services.